Weather in Staroivanovka

Russia / Belgorod Oblast     50°34′22″N   37°48′38″E
temp.,
°C
wind,
m/s
gust,
m/s
humid.,
%
clouds,
%
prec.,
mm/h
press.,
hPa
HPBL,
m
17 april, sat
sat1700:00+7sse2273100 0.0 101814
03:00+7wnw237999 0.1 1018103
06:00+7ene2284100 0.1 101867
09:00+9sw446915 0.6 1018806
12:00+12sw554728 0.2 10181855
15:00+10sw775660 0.3 10191241
18:00+9wsw5664100 0.0 1019903
21:00+6ssw377615 0.0 1020270
18 april, sun
sun1800:00+5sw368776 0.0 1020254
03:00+5sw268912 0.0 1020158
06:00+5ssw2586100 0.0 1020196
09:00+8sw3573100 0.0 1020570
12:00+10sw3561100 0.0 10201229
15:00+12s2355100 0.3 10191308
18:00+12se236092 0.1 1018168
21:00+9ese3766100 0.1 1019155
19 april, mon
mon1900:00+8ese4116957 0.0 1018248
03:00+8ese3771100 0.0 1018145
06:00+7ese487850 0.0 1017181
09:00+11sse576750 0.1 1017795
12:00+13ese776274 1.1 10161263
15:00+10ese6774100 1.4 1016776
18:00+10ese467397 0.0 1015788
21:00+9e3782100 0.0 1014486
20 april, tue
tue2000:00+8ene4787100 0.0 1012452
03:00+8ene4792100 0.0 1011488
06:00+8ene4994100 0.0 1008530
09:00+9ene61293100 0.1 1004588
12:00+10e71596100 6.8 1000884
15:00+12se101893100 21.5 9961099
18:00+13s5108015 0.9 997879
21:00+10sse7148613 2.3 998584
21 april, wed
wed2100:00+8s81287100 0.9 9991011
03:00+7ssw71193100 1.5 10011066
06:00+6wsw71288100 0.1 10071117
09:00+8wsw61177100 0.2 10111220
12:00+12sw71061100 0.1 10121683
15:00+12sw6959100 0.4 10131561
18:00+11sw696672 0.4 1015812
21:00+8sw3878100 0.4 1018227